Wind_Speed
55 58 60 62 63 61 57 52 48 45 42 40 38 36 35 35 35 36 36 36 36 36 36 35 34 33 32 31 30 28 28 27 26 23 24 25 26 27 25 23 21 20 21
57 60 61 60 56 50 45 42 40 38 37 37 36 36 35 35 35 35 35 35 34 34 33 31 30 29 28 26 24 24 23 25 24 22 22 22 22 20 18 16 15 14 15
59 59 57 50 44 40 39 38 38 38 38 38 38 38 37 36 37 37 37 36 35 33 32 29 28 26 24 22 20 20 21 23 23 21 20 19 18 16 14 12 11 11 12
57 53 45 39 36 36 36 36 37 38 39 40 40 40 40 40 40 40 38 37 35 34 31 29 26 23 21 19 19 20 21 21 20 19 17 16 14 12 10 9 9 9 10
49 41 35 33 33 33 34 35 37 39 40 42 42 43 42 41 41 39 37 37 35 33 31 28 25 22 20 18 18 19 20 19 17 15 13 11 10 10 9 8 7 7 8
39 33 30 30 30 31 33 35 38 40 42 43 43 42 41 40 39 38 37 35 34 32 30 27 25 22 19 18 18 18 17 15 13 11 9 8 9 9 9 8 7 6 7
30 27 27 27 28 30 34 37 39 41 42 43 42 41 39 38 37 36 35 33 31 30 28 26 24 21 18 17 16 15 14 12 10 7 6 7 9 9 8 7 5 4 4
24 24 24 26 29 32 35 39 41 42 43 42 41 39 37 35 34 33 32 30 29 28 26 24 22 20 18 15 14 13 11 8 6 4 5 7 9 10 8 7 4 2 0
21 22 24 27 30 34 38 41 42 43 42 41 39 37 36 34 31 29 28 27 26 25 24 22 20 18 16 14 12 10 7 4 3 4 6 8 10 11 9 7 5 4 4
20 22 25 29 33 37 41 43 43 43 42 40 39 37 35 33 30 27 24 23 22 22 21 20 18 15 13 11 8 6 5 4 5 6 8 9 11 11 10 8 7 7 7
20 24 28 32 36 40 43 43 43 42 41 39 38 36 34 32 30 26 23 21 20 19 18 17 15 13 10 9 6 6 6 6 8 9 10 10 10 10 9 9 9 10 10
22 27 31 36 40 42 43 42 41 41 40 38 36 35 34 32 29 26 22 19 18 17 16 14 12 11 10 8 8 8 9 10 10 11 12 11 10 10 10 11 12 13 13
25 30 34 38 41 42 41 40 40 41 40 39 36 34 32 30 29 26 22 19 16 14 13 11 9 9 10 10 11 11 12 12 12 13 13 13 12 11 12 13 14 15 17
28 32 37 40 41 41 40 40 40 41 40 39 36 33 30 29 27 24 22 18 14 11 10 8 6 8 11 12 13 14 14 14 14 15 15 14 13 13 14 15 17 18 19
30 34 38 40 40 40 40 41 40 40 39 37 35 32 29 26 24 22 19 16 11 8 6 5 5 9 12 14 15 15 16 16 17 17 17 15 14 14 15 17 19 20 20
32 36 38 38 39 39 41 40 40 39 38 35 33 30 28 25 23 20 17 14 9 4 3 2 5 9 13 16 17 17 17 18 18 18 18 17 16 17 17 18 19 19 19
32 35 36 37 37 38 39 40 40 39 37 34 31 29 26 24 21 19 16 12 6 1 2 2 5 9 13 16 18 18 18 19 19 19 20 20 19 19 19 19 19 18 17
33 35 36 37 37 38 39 40 41 40 37 34 31 28 25 22 20 17 15 10 5 4 4 4 5 9 12 16 17 18 19 19 20 20 20 22 22 21 20 20 18 17 14
33 35 36 36 37 37 38 39 40 39 36 33 31 28 25 21 18 15 12 10 7 6 5 5 6 9 11 14 16 18 19 20 20 20 21 21 22 22 21 20 17 14 11
33 34 35 36 36 36 37 38 39 38 35 32 30 29 26 22 19 14 10 9 8 7 6 6 7 9 11 12 14 16 18 19 20 21 22 22 22 22 21 19 16 13 10
33 34 34 34 34 35 36 38 39 38 36 33 32 31 28 24 19 15 11 9 8 8 7 7 7 10 12 12 13 14 16 17 18 20 22 23 23 22 21 19 16 13 11
32 32 32 33 33 34 35 37 38 38 37 35 34 32 30 26 21 17 13 10 8 8 8 7 7 10 12 13 13 14 14 15 16 18 20 22 23 23 22 19 17 14 12
31 31 32 32 32 33 34 36 37 38 37 36 35 33 31 28 24 20 16 12 10 8 8 8 7 9 12 13 13 13 13 14 15 16 18 20 22 22 21 19 17 15 14
30 30 31 31 31 31 33 34 36 37 37 37 36 34 32 30 26 23 20 17 14 11 9 9 9 9 11 12 12 12 12 13 14 15 16 17 18 19 19 18 18 17 18
29 30 30 31 30 31 32 33 34 35 36 37 36 35 34 31 28 25 23 21 18 16 13 11 11 12 13 13 12 11 11 11 12 14 16 16 16 17 18 18 19 20 20
29 29 30 30 30 31 32 32 33 34 34 35 35 35 34 32 29 25 23 21 20 19 17 15 14 14 14 14 14 13 12 12 12 13 15 16 17 17 18 19 19 20 20
Wind_Direction
305 306 307 307 308 309 309 309 309 309 309 309 308 306 304 302 300 300 299 298 298 298 298 298 296 295 294 293 290 289 290 292 293 290 283 281 279 277 276 275 274 272 271
308 309 310 310 311 312 313 314 315 314 313 312 309 307 305 302 301 300 300 299 300 301 301 301 299 298 297 295 292 290 291 294 294 292 285 281 278 276 275 270 272 272 271
311 312 313 313 314 316 317 317 317 317 316 314 311 308 305 302 300 298 298 298 297 299 300 300 299 298 297 296 293 292 294 295 295 292 284 278 273 271 267 262 266 269 275
313 314 315 316 317 319 320 321 322 322 321 318 315 311 307 303 300 298 296 295 295 295 296 296 295 295 295 293 292 293 296 297 295 292 283 273 265 258 250 253 259 269 281
316 316 317 319 321 323 326 327 328 328 326 323 318 314 310 306 302 298 294 291 291 290 292 293 291 290 291 290 291 294 297 297 295 290 277 261 248 237 235 240 246 264 286
316 317 319 322 326 328 331 332 332 332 330 326 322 318 315 311 306 300 294 290 287 286 285 287 287 285 287 288 290 295 298 297 293 285 263 239 225 218 221 224 236 265 291
316 318 323 327 330 333 334 335 334 333 332 329 326 322 320 317 312 307 299 291 287 284 282 281 281 281 283 285 290 294 295 293 290 272 233 216 205 206 208 209 228 272 300
317 322 327 330 333 334 335 334 334 333 332 330 327 325 323 321 317 312 305 298 291 285 281 278 276 276 277 281 287 290 289 283 276 239 208 194 192 192 194 195 203 223 220
320 325 328 332 333 333 333 332 332 332 332 331 328 326 324 323 321 318 312 305 298 290 284 278 272 271 271 275 280 279 270 253 223 189 177 176 174 175 175 170 169 165 142
321 326 329 331 331 331 331 332 332 332 332 331 329 327 326 324 322 320 316 311 304 298 290 280 268 264 260 266 266 252 225 206 179 164 161 162 165 166 166 162 156 148 135
323 327 329 329 330 331 332 333 333 332 332 331 329 328 327 326 324 321 317 311 307 302 296 285 268 254 243 245 234 205 187 169 160 158 156 156 157 161 160 152 145 139 132
325 327 328 329 330 332 332 333 333 332 333 333 332 329 329 328 327 325 321 315 306 301 296 288 269 242 223 216 191 178 173 164 159 157 157 157 158 156 149 140 137 133 129
326 327 329 330 331 332 334 335 335 335 336 337 335 333 331 330 329 328 325 319 310 301 295 288 265 227 203 189 175 172 169 165 162 160 157 157 156 149 140 135 133 130 127
327 330 332 332 333 335 338 339 340 340 340 339 338 337 335 334 333 332 330 324 314 300 292 285 255 207 189 176 169 168 167 165 164 164 161 157 152 143 136 134 132 131 129
331 334 335 336 338 339 342 344 345 344 343 342 341 340 339 339 339 338 336 331 320 298 285 274 229 190 179 170 166 166 168 168 166 164 162 158 151 144 140 136 134 132 131
337 338 339 341 343 344 345 347 348 347 346 345 344 344 344 344 345 345 344 340 331 296 258 236 197 180 174 169 166 167 168 169 168 167 165 161 155 151 146 142 139 137 136
342 343 345 347 348 349 350 350 351 350 350 349 349 349 349 350 352 353 353 353 355 121 153 157 169 171 170 169 168 169 169 171 171 169 166 163 161 159 156 151 148 146 144
347 348 350 352 353 354 355 355 354 354 354 354 355 354 354 354 356 358 3 13 43 99 112 122 147 161 165 167 169 170 170 172 174 172 170 170 170 168 165 162 159 156 151
350 352 354 356 358 359 359 359 359 359 360 0 1 2 1 1 2 6 14 32 59 87 93 105 134 151 158 162 166 169 171 174 175 175 175 175 175 173 172 170 168 165 160
353 355 358 1 2 3 4 4 4 5 6 8 9 10 11 10 11 16 27 44 58 74 81 95 125 144 151 156 162 168 172 175 177 179 180 181 180 178 178 177 177 176 176
356 359 2 5 6 7 8 9 10 11 12 15 16 17 18 18 20 27 39 54 63 69 74 87 119 139 147 152 156 160 166 172 177 181 183 185 185 185 185 186 188 189 191
359 4 6 8 10 12 13 14 14 16 18 20 21 22 24 26 30 35 41 52 62 69 73 81 108 136 147 152 156 157 160 166 172 178 183 186 189 191 193 195 197 199 198
4 7 8 11 13 15 16 17 18 20 22 24 25 27 29 33 36 39 44 50 61 75 81 83 99 127 141 150 159 161 160 162 166 170 176 182 187 191 195 198 199 197 192
8 9 10 13 15 16 17 18 19 22 24 26 28 30 32 35 39 43 47 53 63 74 84 90 97 118 133 141 151 159 163 162 162 164 167 174 180 185 189 191 191 188 184
11 11 12 14 16 17 17 18 19 22 24 26 28 31 33 36 40 45 51 56 61 67 77 90 100 111 122 131 138 146 154 159 160 163 166 167 170 173 176 178 179 179 179
14 14 15 17 18 17 17 18 19 21 24 26 29 32 34 36 39 45 52 58 61 66 74 83 96 107 116 125 132 137 142 147 153 159 164 167 168 169 171 173 174 176 178
Height
5733 5725 5717 5708 5698 5689 5679 5670 5661 5653 5646 5639 5632 5627 5621 5617 5612 5608 5603 5599 5596 5591 5587 5583 5579 5575 5571 5568 5566 5563 5561 5558 5557 5557 5555 5553 5551 5549 5548 5547 5547 5547 5548
5720 5712 5703 5693 5684 5676 5668 5660 5653 5645 5639 5632 5626 5620 5615 5610 5605 5600 5595 5591 5587 5583 5578 5574 5570 5567 5564 5560 5558 5556 5554 5552 5550 5549 5548 5546 5544 5543 5543 5543 5543 5543 5543
5708 5699 5690 5681 5673 5666 5660 5653 5646 5639 5632 5625 5619 5613 5607 5602 5597 5591 5587 5582 5578 5574 5571 5567 5564 5560 5557 5555 5552 5551 5549 5546 5544 5543 5542 5540 5539 5539 5539 5539 5540 5540 5540
5696 5687 5679 5672 5666 5660 5653 5646 5640 5633 5626 5618 5611 5605 5599 5593 5587 5582 5577 5573 5569 5566 5563 5560 5557 5554 5552 5550 5548 5546 5543 5541 5539 5537 5536 5535 5535 5535 5536 5537 5538 5538 5538
5686 5679 5672 5666 5660 5654 5648 5641 5634 5626 5619 5611 5604 5596 5590 5583 5577 5572 5568 5564 5560 5558 5555 5553 5550 5548 5546 5544 5543 5541 5538 5536 5534 5532 5531 5531 5532 5533 5534 5536 5537 5537 5537
5679 5672 5667 5661 5655 5649 5643 5635 5628 5620 5611 5603 5595 5587 5580 5573 5566 5561 5557 5553 5550 5549 5547 5545 5543 5542 5541 5539 5538 5536 5534 5532 5530 5529 5529 5529 5530 5532 5533 5535 5536 5537 5537
5673 5668 5662 5657 5651 5645 5638 5630 5622 5614 5604 5595 5587 5579 5571 5565 5557 5551 5546 5543 5541 5539 5538 5537 5536 5536 5535 5534 5533 5532 5530 5529 5528 5527 5527 5528 5529 5531 5533 5535 5536 5537 5537
5669 5664 5659 5654 5647 5640 5633 5625 5616 5607 5598 5588 5580 5571 5564 5557 5550 5544 5538 5534 5532 5530 5529 5529 5529 5529 5529 5529 5529 5528 5527 5526 5525 5525 5526 5528 5529 5531 5533 5535 5537 5538 5538
5667 5662 5656 5650 5643 5636 5628 5619 5610 5601 5591 5582 5573 5565 5557 5550 5543 5537 5532 5527 5525 5522 5521 5521 5522 5523 5524 5524 5525 5524 5524 5524 5525 5525 5526 5528 5529 5532 5534 5536 5537 5539 5540
5664 5659 5653 5646 5639 5631 5623 5614 5604 5594 5584 5575 5566 5558 5551 5544 5538 5532 5527 5523 5519 5517 5515 5515 5516 5518 5519 5521 5521 5522 5522 5523 5524 5526 5527 5529 5530 5533 5535 5537 5539 5540 5542
5661 5656 5649 5642 5635 5626 5617 5608 5598 5588 5579 5570 5561 5552 5545 5538 5532 5526 5522 5518 5515 5512 5511 5510 5511 5513 5515 5517 5518 5520 5521 5523 5524 5527 5529 5531 5533 5535 5537 5539 5541 5543 5545
5659 5653 5646 5638 5630 5621 5612 5602 5593 5583 5574 5564 5555 5546 5539 5532 5526 5521 5517 5513 5510 5508 5506 5506 5507 5509 5512 5515 5517 5519 5521 5523 5525 5528 5530 5533 5535 5537 5540 5542 5543 5545 5547
5656 5649 5642 5634 5625 5616 5607 5597 5587 5577 5567 5558 5549 5541 5534 5527 5521 5516 5512 5508 5505 5504 5503 5502 5503 5506 5509 5512 5515 5518 5521 5523 5526 5529 5532 5534 5537 5540 5542 5545 5547 5549 5551
5653 5646 5638 5630 5620 5611 5602 5592 5582 5571 5561 5552 5544 5536 5529 5522 5516 5511 5507 5504 5501 5500 5500 5500 5501 5504 5507 5511 5514 5517 5520 5524 5527 5530 5533 5536 5539 5542 5545 5547 5550 5552 5555
5650 5643 5634 5625 5615 5606 5597 5587 5577 5567 5557 5548 5540 5532 5525 5519 5513 5508 5503 5500 5498 5497 5498 5499 5500 5503 5506 5510 5514 5517 5521 5524 5527 5531 5534 5538 5541 5545 5548 5550 5553 5556 5559
5647 5639 5630 5621 5612 5602 5592 5584 5574 5564 5554 5545 5537 5529 5522 5516 5510 5506 5501 5498 5496 5495 5497 5498 5500 5502 5506 5509 5513 5517 5521 5524 5528 5531 5535 5539 5543 5547 5550 5553 5556 5559 5562
5644 5636 5627 5618 5609 5600 5590 5580 5571 5562 5552 5543 5535 5527 5520 5514 5509 5505 5501 5498 5496 5496 5497 5498 5500 5502 5505 5509 5513 5517 5521 5525 5529 5532 5537 5541 5545 5548 5552 5555 5559 5562 5565
5642 5634 5625 5616 5607 5598 5588 5579 5569 5559 5550 5541 5533 5525 5519 5513 5508 5504 5501 5498 5497 5497 5498 5499 5501 5503 5506 5509 5513 5517 5521 5525 5529 5533 5537 5542 5546 5550 5553 5557 5561 5564 5567
5640 5632 5624 5615 5606 5597 5588 5579 5569 5559 5550 5541 5533 5525 5519 5513 5509 5505 5502 5500 5499 5499 5500 5501 5502 5504 5507 5510 5514 5518 5522 5526 5530 5534 5538 5543 5547 5551 5555 5559 5563 5566 5569
5640 5631 5623 5615 5607 5598 5589 5580 5570 5560 5551 5542 5534 5527 5520 5514 5510 5506 5504 5503 5502 5502 5502 5503 5504 5506 5509 5512 5515 5518 5522 5526 5530 5534 5539 5543 5548 5552 5556 5560 5564 5567 5570
5639 5631 5624 5616 5608 5600 5591 5582 5573 5563 5554 5545 5537 5529 5522 5516 5512 5509 5507 5505 5505 5505 5505 5505 5506 5508 5510 5513 5517 5520 5523 5527 5531 5534 5539 5543 5548 5553 5557 5561 5565 5568 5571
5640 5632 5625 5618 5610 5602 5594 5585 5576 5567 5557 5549 5541 5533 5526 5520 5516 5512 5510 5508 5508 5507 5508 5508 5509 5510 5512 5515 5519 5522 5525 5528 5531 5535 5539 5543 5548 5552 5557 5561 5565 5568 5571
5641 5634 5627 5619 5612 5604 5597 5589 5581 5572 5563 5554 5546 5539 5532 5526 5521 5517 5514 5511 5510 5510 5510 5511 5511 5513 5515 5518 5521 5524 5527 5530 5533 5536 5539 5543 5548 5552 5556 5560 5564 5568 5571
5642 5636 5629 5622 5615 5608 5601 5593 5585 5577 5568 5560 5552 5545 5538 5532 5527 5522 5519 5516 5514 5514 5514 5514 5515 5516 5518 5520 5523 5526 5529 5532 5534 5537 5541 5544 5548 5552 5556 5560 5564 5567 5571
5645 5638 5632 5625 5618 5611 5604 5597 5590 5582 5574 5566 5559 5551 5545 5539 5534 5529 5525 5522 5520 5518 5518 5518 5518 5519 5521 5523 5525 5528 5531 5534 5537 5540 5543 5546 5549 5553 5556 5560 5564 5567 5571
5647 5641 5635 5628 5621 5615 5608 5601 5594 5586 5579 5572 5565 5558 5552 5546 5540 5536 5532 5529 5527 5525 5523 5523 5523 5523 5525 5527 5529 5531 5534 5536 5539 5542 5545 5548 5551 5555 5558 5561 5565 5568 5572